User: anonymous   Login
Location: Cossonay
(46.5833°N, 6.4167°E)
Time: 17:27:41
(UTC+00:00)
Language:

Cosmos 1758 Rocket - Orbit

View from above orbital plane
View from above orbital plane
View from above satellite
View from above satellite

Ground track
Ground track

The orbit data is extracted from the following two-line orbital elements,

1 16792U 86046B   20220.48199021 +.00000051 +00000-0 +32759-5 0  9996
2 16792 082.4820 202.7482 0025644 113.7361 003.2628 14.83247968823858
Epoch (UTC): 07 August 2020 11:34:03
Eccentricity: 0.0025644
inclination: 82.4820°
perigee height: 601 km
apogee height: 637 km
right ascension of ascending node: 202.7482°
argument of perigee: 113.7361°
revolutions per day: 14.83247968
mean anomaly at epoch: 3.2628°
orbit number at epoch: 82385

The dashed part of the orbit path shows where the satellite is in the earth's shadow,  

DLR